TimeMDT,TemperatureF,Dew PointF,Humidity,Sea Level PressureIn,VisibilityMPH,Wind Direction,Wind SpeedMPH,Gust SpeedMPH,PrecipitationIn,Events,Conditions,WindDirDegrees,DateUTC
12:21 AM,23.0,19.4,86,30.36,10.0,South,8.1,-,N/A,,Scattered Clouds,180,2013-10-05 06:21:00
12:36 AM,23.0,19.4,86,30.36,1.8,South,8.1,-,N/A,,Scattered Clouds,190,2013-10-05 06:36:00
12:38 AM,23.0,19.4,86,30.36,0.8,South,6.9,-,N/A,,Mist,190,2013-10-05 06:38:00
12:47 AM,23.0,19.4,86,30.36,0.2,SSW,6.9,-,N/A,Fog,Light Freezing Fog,210,2013-10-05 06:47:00
12:54 AM,21.9,19.9,92,30.47,0.2,SSW,6.9,-,N/A,Fog,Light Freezing Fog,210,2013-10-05 06:54:00
1:09 AM,21.2,19.4,93,30.36,0.5,WSW,5.8,-,N/A,Fog,Light Freezing Fog,240,2013-10-05 07:09:00
1:20 AM,23.0,19.4,86,30.36,1.0,WSW,3.5,-,N/A,,Mist,240,2013-10-05 07:20:00
1:31 AM,21.2,19.4,93,30.36,0.8,Calm,Calm,-,N/A,,Overcast,0,2013-10-05 07:31:00
1:41 AM,21.2,19.4,93,30.36,2.0,Calm,Calm,-,N/A,,Overcast,0,2013-10-05 07:41:00
1:51 AM,23.0,19.4,86,30.36,0.8,Calm,Calm,-,N/A,,Overcast,0,2013-10-05 07:51:00
1:54 AM,23.0,21.0,92,30.47,0.5,Calm,Calm,-,N/A,Fog,Light Freezing Fog,0,2013-10-05 07:54:00
2:02 AM,23.0,21.2,93,30.36,0.2,Calm,Calm,-,N/A,Fog,Light Freezing Fog,0,2013-10-05 08:02:00
2:15 AM,24.8,21.2,86,30.36,0.2,WSW,3.5,-,N/A,Fog,Light Freezing Fog,240,2013-10-05 08:15:00
2:44 AM,23.0,19.4,86,30.36,0.2,SW,4.6,-,N/A,Fog,Light Freezing Fog,220,2013-10-05 08:44:00
2:54 AM,23.0,19.9,88,30.47,0.5,SW,3.5,-,N/A,Fog,Light Freezing Fog,230,2013-10-05 08:54:00
3:12 AM,23.0,19.4,86,30.36,0.5,Calm,Calm,-,N/A,Fog,Light Freezing Fog,0,2013-10-05 09:12:00
3:42 AM,23.0,19.4,86,30.35,2.0,West,4.6,-,N/A,,Mostly Cloudy,270,2013-10-05 09:42:00
3:52 AM,21.2,19.4,93,30.35,0.8,WSW,5.8,-,N/A,,Mist,250,2013-10-05 09:52:00
3:54 AM,21.9,19.0,89,30.46,0.5,WSW,5.8,-,N/A,Fog,Light Freezing Fog,250,2013-10-05 09:54:00
4:03 AM,21.2,17.6,86,30.35,0.2,West,6.9,-,N/A,Fog,Light Freezing Fog,260,2013-10-05 10:03:00
4:10 AM,19.4,17.6,93,30.35,0.2,West,6.9,-,N/A,Fog,Light Freezing Fog,270,2013-10-05 10:10:00
4:22 AM,23.0,19.4,86,30.35,1.0,West,11.5,-,N/A,,Overcast,260,2013-10-05 10:22:00
4:31 AM,24.8,23.0,93,30.36,0.8,West,11.5,-,N/A,,Mist,270,2013-10-05 10:31:00
4:54 AM,26.1,24.1,92,30.46,0.2,WSW,9.2,-,N/A,Fog,Light Freezing Fog,250,2013-10-05 10:54:00
5:23 AM,26.6,23.0,86,30.35,0.8,WSW,12.7,-,N/A,,Overcast,240,2013-10-05 11:23:00
5:30 AM,26.6,23.0,86,30.35,2.0,WSW,13.8,-,N/A,,Overcast,240,2013-10-05 11:30:00
5:42 AM,26.6,23.0,86,30.36,5.0,WSW,11.5,-,N/A,,Overcast,250,2013-10-05 11:42:00
5:54 AM,25.0,21.9,88,30.47,7.0,WSW,10.4,-,N/A,,Mostly Cloudy,250,2013-10-05 11:54:00
6:02 AM,24.8,21.2,86,30.36,1.8,West,9.2,-,N/A,,Mostly Cloudy,260,2013-10-05 12:02:00
6:06 AM,24.8,21.2,86,30.36,0.8,WSW,9.2,-,N/A,,Mist,250,2013-10-05 12:06:00
6:12 AM,23.0,21.2,93,30.36,0.2,West,9.2,-,N/A,Fog,Light Freezing Fog,260,2013-10-05 12:12:00
6:24 AM,21.2,19.4,93,30.36,0.2,WSW,10.4,-,N/A,Fog,Light Freezing Fog,240,2013-10-05 12:24:00
6:28 AM,23.0,19.4,86,30.37,0.5,WSW,9.2,-,N/A,Fog,Light Freezing Fog,250,2013-10-05 12:28:00
6:41 AM,23.0,21.2,93,30.36,0.2,WSW,13.8,-,N/A,Fog,Light Freezing Fog,250,2013-10-05 12:41:00
6:48 AM,24.8,21.2,86,30.37,1.0,WSW,15.0,-,N/A,,Mist,250,2013-10-05 12:48:00
6:50 AM,24.8,21.2,86,30.37,2.0,WSW,13.8,-,N/A,,Scattered Clouds,250,2013-10-05 12:50:00
6:54 AM,24.1,21.0,88,30.49,9.0,WSW,13.8,-,N/A,,Scattered Clouds,250,2013-10-05 12:54:00
7:54 AM,23.0,19.9,88,30.51,10.0,West,11.5,-,N/A,,Clear,260,2013-10-05 13:54:00
8:54 AM,27.0,23.0,85,30.51,10.0,WSW,13.8,-,N/A,,Clear,250,2013-10-05 14:54:00
9:54 AM,28.9,25.0,85,30.51,10.0,WSW,15.0,-,N/A,,Clear,250,2013-10-05 15:54:00
10:54 AM,30.9,27.0,85,30.51,10.0,West,13.8,-,N/A,,Clear,260,2013-10-05 16:54:00
11:54 AM,35.1,28.0,76,30.48,10.0,WSW,13.8,-,N/A,,Clear,240,2013-10-05 17:54:00
12:54 PM,39.0,30.9,73,30.46,10.0,WSW,12.7,-,N/A,,Clear,250,2013-10-05 18:54:00
1:54 PM,42.1,30.0,62,30.42,10.0,West,18.4,-,N/A,,Clear,260,2013-10-05 19:54:00
2:54 PM,46.0,30.0,54,30.38,10.0,WSW,18.4,-,N/A,,Clear,250,2013-10-05 20:54:00
3:54 PM,48.0,32.0,54,30.37,10.0,WSW,13.8,-,N/A,,Clear,240,2013-10-05 21:54:00
4:54 PM,48.9,30.0,48,30.33,10.0,WSW,17.3,-,N/A,,Clear,250,2013-10-05 22:54:00
5:54 PM,48.9,28.9,46,30.35,10.0,West,15.0,-,N/A,,Clear,260,2013-10-05 23:54:00
6:54 PM,44.1,30.0,58,30.38,10.0,WSW,12.7,-,N/A,,Clear,250,2013-10-06 00:54:00
7:13 PM,42.8,28.4,57,30.35,10.0,WSW,12.7,-,N/A,,Partly Cloudy,250,2013-10-06 01:13:00
7:54 PM,42.1,27.0,55,30.41,10.0,WSW,17.3,-,N/A,,Clear,250,2013-10-06 01:54:00
8:54 PM,41.0,27.0,57,30.43,10.0,West,13.8,-,N/A,,Clear,260,2013-10-06 02:54:00
9:54 PM,39.0,27.0,62,30.44,10.0,WSW,12.7,-,N/A,,Clear,250,2013-10-06 03:54:00
10:54 PM,37.9,27.0,65,30.43,10.0,WSW,15.0,-,N/A,,Clear,250,2013-10-06 04:54:00
11:54 PM,37.0,27.0,67,30.42,10.0,WSW,16.1,-,N/A,,Clear,240,2013-10-06 05:54:00